Stations météo

Publicité
Paris-Montsouris, France (7156): Température de l'air & dewpoint: 13.10.2018 21:00:00 - 19.10.2018 21:00:00 (CEST)Paris-Montsouris, France (7156): Température de l'air 5cm: 13.10.2018 21:00:00 - 19.10.2018 21:00:00 (CEST)Paris-Montsouris, France (7156): Température de l'air -20cm & Température de l'air -100cm: 13.10.2018 21:00:00 - 19.10.2018 21:00:00 (CEST)Paris-Montsouris, France (7156): Vitesse du vent & gusts: 13.10.2018 21:00:00 - 19.10.2018 21:00:00 (CEST)Paris-Montsouris, France (7156): Direction du vent: 13.10.2018 21:00:00 - 19.10.2018 21:00:00 (CEST)Paris-Montsouris, France (7156): reduced air pressure: 13.10.2018 21:00:00 - 19.10.2018 21:00:00 (CEST)Paris-Montsouris, France (7156): visibility: 13.10.2018 21:00:00 - 19.10.2018 21:00:00 (CEST)Paris-Montsouris, France (7156): Ensoleillement: 13.10.2018 21:00:00 - 19.10.2018 21:00:00 (CEST)Paris-Montsouris, France (7156): Quantités de précipitations: 13.10.2018 21:00:00 - 19.10.2018 21:00:00 (CEST)
Date & Time tt [°C] td [°C] tt 5cm [°C] tt -20cm [°C] tt -100cm [°C] ff [km/h] ff [knt] fx [km/h] fx [knt] dd ppp [hPa] vv [km] sd [min] rr [mm]
19.10.2018 21:00:00 14,8 10,4 12,4 14,3 15,3 14 7 33 18 NNE 1025,6 9 0 0,0
19.10.2018 20:00:00 15,0 11,0 12,0 14,4 15,3 13 7 27 14 NNE 1025,1 8 0 0,0
19.10.2018 19:00:00 15,7 10,7 13,9 14,4 15,3 17 9 34 18 NE 1024,1 8 29 0,0
19.10.2018 18:00:00 16,7 11,2 15,8 14,3 15,3 13 7 26 14 NNE 1023,5 11 60 0,0
19.10.2018 17:00:00 17,5 11,1 17,2 14,2 15,3 14 8 29 16 NNE 1023,0 11 60 0,0
19.10.2018 16:00:00 17,7 11,3 17,8 14,1 15,3 14 8 29 16 N 1022,8 10 60 0,0
19.10.2018 15:00:00 18,3 11,8 21,6 13,9 15,3 11 6 31 17 N 1022,7 10 60 0,0
19.10.2018 14:00:00 16,8 11,3 16,6 13,8 15,3 15 8 25 14 N 1023,4 7 60 0,0
19.10.2018 13:00:00 15,0 10,8 14,7 13,8 15,3 11 6 22 12 NNE 1023,6 7 60 0,0
19.10.2018 12:00:00 13,5 10,5 14,2 13,8 15,3 6 3 21 11 NE 1023,6 5 60 0,0
19.10.2018 11:00:00 12,2 10,1 12,4 13,8 15,3 9 5 23 12 NNE 1023,6 4,4 40 0,0
19.10.2018 10:00:00 11,6 9,8 10,0 13,9 15,3 13 7 21 12 NNE 1023,6 4,5 58 0,0
19.10.2018 09:00:00 11,0 9,6 8,6 14,0 15,3 11 6 22 12 NNE 1023,0 4,3 4 0,0
19.10.2018 08:00:00 10,8 9,6 8,8 14,1 15,3 10 6 22 12 N 1022,6 4,1 0 0,0
19.10.2018 07:00:00 10,9 9,5 9,0 14,2 15,3 9 5 23 12 NNE 1022,2 4,4 0 0,0
19.10.2018 06:00:00 11,2 9,8 9,2 14,2 15,3 9 5 22 12 NNE 1022,3 5 0 0,0
19.10.2018 05:00:00 11,3 9,9 9,5 14,3 15,3 10 5 29 16 NNE 1022,4 6 0 0,0
19.10.2018 04:00:00 11,7 10,1 10,3 14,4 15,3 14 8 26 14 NNE 1022,5 8 0 0,0
19.10.2018 03:00:00 11,9 10,0 10,1 14,5 15,3 16 8 29 15 NNE 1022,4 11 0 0,0
19.10.2018 02:00:00 12,2 9,9 10,5 14,6 15,3 14 7 31 17 NNE 1022,4 15 0 0,0
19.10.2018 01:00:00 12,7 10,1 10,6 14,7 15,3 11 6 30 16 NE 1022,4 19 0 0,0
19.10.2018 00:00:00 13,2 9,8 11,3 14,8 15,3 18 10 32 17 NNE 1022,6 20 0 0,0
18.10.2018 23:00:00 13,9 9,5 11,6 14,9 15,3 13 7 26 14 NNE 1022,5 20 0 0,0
18.10.2018 22:00:00 14,7 9,7 12,3 14,9 15,3 15 8 33 18 NNE 1022,4 20 0 0,0
18.10.2018 21:00:00 15,3 10,1 13,1 15,0 15,3 14 8 35 19 NNE 1022,0 20 0 0,0
18.10.2018 20:00:00 15,9 10,4 14,2 15,0 15,3 18 10 39 21 NNE 1021,9 20 0 0,0
18.10.2018 19:00:00 16,4 10,7 14,9 15,0 15,3 21 12 44 24 NE 1021,4 20 31 0,0
18.10.2018 18:00:00 17,1 11,1 16,5 15,0 15,3 20 11 42 23 NNE 1020,8 16 57 0,0
18.10.2018 17:00:00 17,7 11,5 17,8 14,8 15,3 18 10 41 22 NE 1020,9 13 58 0,0
18.10.2018 16:00:00 18,9 12,4 19,5 14,7 15,3 19 10 38 20 NNE 1020,8 12 60 0,0
18.10.2018 15:00:00 20,4 12,6 24,9 14,6 15,3 18 10 37 20 NNE 1020,8 14 60 0,0
18.10.2018 14:00:00 19,8 13,0 19,3 14,5 15,3 17 9 30 16 NNE 1021,3 13 60 0,0
18.10.2018 13:00:00 18,3 12,1 17,8 14,4 15,3 11 6 27 15 NE 1021,6 10 60 0,0
18.10.2018 12:00:00 17,0 12,1 17,4 14,4 15,3 14 8 29 16 ENE 1021,8 10 60 0,0
18.10.2018 11:00:00 15,3 11,5 13,6 14,5 15,3 11 6 33 18 NE 1022,0 10 60 0,0
18.10.2018 10:00:00 13,4 10,7 12,0 14,5 15,3 14 8 37 20 NE 1022,0 9 60 0,0
18.10.2018 09:00:00 12,9 10,3 11,2 14,6 15,3 17 9 36 19 NNE 1021,6 10 20 0,0
18.10.2018 08:00:00 12,7 9,7 10,8 14,7 15,3 18 10 39 21 NNE 1021,4 12 0 0,0
18.10.2018 07:00:00 12,6 9,8 11,0 14,8 15,3 16 9 34 19 NNE 1021,0 10 0 0,0
18.10.2018 06:00:00 12,8 10,2 11,1 14,8 15,3 17 9 35 19 NNE 1021,0 8 0 0,0
18.10.2018 05:00:00 13,2 10,6 11,5 14,9 15,3 14 8 37 20 NNE 1020,7 9 0 0,0
18.10.2018 04:00:00 13,7 11,2 12,0 15,0 15,3 18 10 34 18 NNE 1020,6 6 0 0,0
18.10.2018 03:00:00 14,3 11,6 12,2 15,1 15,3 16 9 32 17 NNE 1020,6 7 0 0,0
18.10.2018 02:00:00 15,1 11,5 13,4 15,2 15,3 15 8 34 19 NNE 1020,4 13 0 0,0
18.10.2018 01:00:00 15,5 11,3 13,7 15,2 15,3 14 8 31 17 NNE 1020,4 19 0 0,0
18.10.2018 00:00:00 16,1 11,5 14,3 15,3 15,3 16 9 35 19 NNE 1020,4 20 0 0,0
17.10.2018 23:00:00 16,7 11,6 14,4 15,3 15,3 17 9 29 16 NNE 1020,2 20 0 0,0
17.10.2018 22:00:00 17,3 11,6 14,9 15,4 15,3 13 7 29 15 NE 1020,0 20 0 0,0
17.10.2018 21:00:00 18,0 11,3 15,2 15,5 15,3 11 6 25 14 NE 1019,4 20 0 0,0
17.10.2018 20:00:00 18,2 11,5 15,2 15,5 15,3 10 6 26 14 N 1018,9 20 0 0,0
17.10.2018 19:00:00 19,2 11,5 17,0 15,5 15,3 11 6 22 12 NNE 1018,1 20 33 0,0
17.10.2018 18:00:00 20,1 12,8 19,3 15,4 15,3 11 6 25 13 NNE 1017,5 20 56 0,0
17.10.2018 17:00:00 20,0 12,5 19,8 15,3 15,3 9 5 22 12 NE 1017,6 20 57 0,0
17.10.2018 16:00:00 20,6 12,3 22,3 15,1 15,3 9 5 18 10 NE 1017,9 20 27 0,0
17.10.2018 15:00:00 20,6 13,1 22,2 14,9 15,3 7 4 16 9 ENE 1018,1 20 0 0,0
17.10.2018 14:00:00 19,7 12,7 21,5 14,7 15,3 4 2 11 6 N 1018,8 19 0 0,0
17.10.2018 13:00:00 18,9 12,4 21,2 14,6 15,3 4 2 14 8 NNE 1019,4 17 33 0,0
17.10.2018 12:00:00 18,2 13,1 19,0 14,6 15,3 6 3 11 6 N 1019,6 16 4 0,0
17.10.2018 11:00:00 17,4 12,7 15,5 14,6 15,3 4 2 10 5 W 1019,5 16 27 0,0
17.10.2018 10:00:00 16,0 12,4 13,5 14,6 15,3 3 2 11 6 WNW 1019,5 17 34 0,0
17.10.2018 09:00:00 15,2 12,1 12,9 14,6 15,3 4 2 9 5 N 1019,3 20 0 0,0
17.10.2018 08:00:00 14,5 11,8 12,6 14,7 15,3 4 2 13 7 N 1019,1 20 0 0,0
17.10.2018 07:00:00 14,5 12,0 11,2 14,8 15,3 6 3 10 5 NNW 1019,0 20 0 0,0
17.10.2018 06:00:00 15,0 11,9 11,9 14,9 15,3 4 2 11 6 NNW 1018,9 20 0 0,0
17.10.2018 05:00:00 15,6 11,8 13,0 15,0 15,3 4 2 12 7 NW 1018,7 20 0 0,0
17.10.2018 04:00:00 15,7 11,7 12,8 15,1 15,3 5 3 15 8 NNW 1018,9 20 0 0,0
17.10.2018 03:00:00 16,4 12,2 13,4 15,2 15,3 7 4 16 9 NW 1019,2 20 0 0,0
17.10.2018 02:00:00 16,7 12,2 12,7 15,2 15,3 6 3 11 6 WNW 1019,1 20 0 0,0
17.10.2018 01:00:00 16,9 12,2 13,0 15,3 15,3 4 2 10 5 WNW 1019,1 20 0 0,0
17.10.2018 00:00:00 17,6 12,5 14,2 15,3 15,3 4 2 18 10 NW 1019,0 20 0 0,0
16.10.2018 23:00:00 18,6 12,1 15,4 15,4 15,3 4 2 23 12 NW 1019,1 20 0 0,0
16.10.2018 22:00:00 19,5 11,8 17,2 15,4 15,3 7 4 22 12 WNW 1018,9 20 0 0,0
16.10.2018 21:00:00 20,5 11,4 14,3 15,5 15,3 9 5 19 10 WNW 1018,5 20 0 0,0
16.10.2018 20:00:00 20,2 10,9 14,5 15,5 15,3 3 2 10 5 WSW 1018,1 20 0 0,0
16.10.2018 19:00:00 21,8 10,9 17,6 15,5 15,3 6 3 16 9 W 1017,7 20 35 0,0
16.10.2018 18:00:00 22,9 10,7 20,2 15,5 15,3 6 3 21 11 WSW 1017,4 20 60 0,0
16.10.2018 17:00:00 23,5 9,5 22,0 15,3 15,3 8 4 20 11 WSW 1017,2 20 51 0,0
16.10.2018 16:00:00 23,8 10,1 23,2 15,1 15,3 8 4 19 11 SSW 1017,2 20 54 0,0
16.10.2018 15:00:00 24,9 10,4 29,4 15,0 15,3 8 4 17 9 SW 1017,3 20 60 0,0
16.10.2018 14:00:00 24,4 9,5 22,5 14,9 15,3 7 4 19 11 SSW 1017,5 20 60 0,0
16.10.2018 13:00:00 22,3 10,1 21,4 14,8 15,3 7 4 17 9 S 1017,8 20 60 0,0
16.10.2018 12:00:00 21,3 9,2 21,5 14,8 15,3 6 3 13 7 SSE 1017,9 19 60 0,0
16.10.2018 11:00:00 20,5 10,3 15,3 14,8 15,3 4 2 8 5 ESE 1017,8 15 60 0,0
16.10.2018 10:00:00 16,9 9,6 12,8 14,9 15,3 4 2 8 4 S 1017,5 19 60 0,0
16.10.2018 09:00:00 15,4 9,3 11,4 15,0 15,3 5 3 9 5 S 1017,3 20 18 0,0
16.10.2018 08:00:00 15,7 9,1 12,6 15,1 15,3 3 1 6 3 S 1017,1 20 0 0,0
16.10.2018 07:00:00 15,4 9,3 12,0 15,1 15,3 4 2 10 5 S 1016,7 20 0 0,0
16.10.2018 06:00:00 16,0 9,9 13,4 15,2 15,3 6 3 10 5 SSW 1016,3 20 0 0,0
16.10.2018 05:00:00 16,4 9,8 13,8 15,2 15,3 5 3 8 5 S 1016,1 20 0 0,0
16.10.2018 04:00:00 16,8 9,2 12,7 15,3 15,2 5 3 9 5 SSE 1015,8 20 0 0,0
16.10.2018 03:00:00 17,4 9,0 13,8 15,3 15,3 4 2 6 3 SSE 1015,7 20 0 0,0
16.10.2018 02:00:00 17,5 9,1 13,4 15,4 15,3 4 2 10 5 SE 1015,4 20 0 0,0
16.10.2018 01:00:00 18,1 8,6 13,8 15,5 15,3 3 1 9 5 SSE 1015,0 20 0 0,0
16.10.2018 00:00:00 19,0 9,2 15,2 15,5 15,3 6 3 12 6 SE 1014,6 20 0 0,0
15.10.2018 23:00:00 18,8 8,4 13,9 15,6 15,3 6 3 10 5 SSE 1014,4 20 0 0,0
15.10.2018 22:00:00 19,1 7,8 14,5 15,7 15,3 8 4 32 18 SW 1014,2 20 0 0,0
15.10.2018 21:00:00 20,6 8,6 15,6 15,7 15,2 13 7 32 17 SSE 1013,6 20 0 0,0
15.10.2018 20:00:00 21,0 7,2 15,9 15,7 15,3 8 4 21 11 SE 1012,6 20 0 0,0
15.10.2018 19:00:00 23,1 6,8 18,7 15,7 15,3 9 5 28 15 SE 1011,6 20 37 0,0
15.10.2018 18:00:00 24,5 7,2 22,9 15,6 15,2 11 6 31 17 SSE 1010,8 20 60 0,0
15.10.2018 17:00:00 24,8 7,0 24,3 15,5 15,3 13 7 43 23 SSE 1010,4 20 54 0,0
15.10.2018 16:00:00 25,2 7,8 24,5 15,4 15,3 20 11 53 29 S 1010,3 20 58 0,0
15.10.2018 15:00:00 26,3 8,7 29,6 15,2 15,3 17 9 51 27 S 1010,2 20 60 0,0
15.10.2018 14:00:00 25,3 8,7 23,3 15,2 15,3 22 12 48 26 S 1010,4 20 60 0,0
15.10.2018 13:00:00 23,0 9,7 21,9 15,1 15,3 17 9 40 21 S 1010,7 20 58 0,0
15.10.2018 12:00:00 21,8 10,3 21,8 15,1 15,3 15 8 34 18 S 1010,6 20 60 0,0
15.10.2018 11:00:00 20,8 11,1 16,3 15,1 15,2 9 5 17 9 SSE 1010,4 20 36 0,0
15.10.2018 10:00:00 17,4 10,7 13,4 15,2 15,2 6 3 18 10 SE 1010,2 17 44 0,0
15.10.2018 09:00:00 16,2 10,9 12,8 15,2 15,2 6 3 15 8 SSE 1009,7 20 0 0,0
15.10.2018 08:00:00 16,3 10,6 13,0 15,3 15,2 6 4 18 10 S 1009,1 20 0 0,0
15.10.2018 07:00:00 17,7 11,3 14,6 15,3 15,2 8 5 24 13 SSW 1008,5 20 0 0,0
15.10.2018 06:00:00 18,3 11,4 16,4 15,3 15,3 13 7 29 16 S 1008,0 20 0 0,0
15.10.2018 05:00:00 19,1 10,9 14,8 15,4 15,2 14 8 34 18 S 1007,7 20 0 0,0
15.10.2018 04:00:00 18,6 10,7 15,1 15,5 15,2 9 5 29 16 S 1007,6 20 0 0,0
15.10.2018 03:00:00 18,9 10,7 15,1 15,5 15,2 10 6 29 15 S 1007,2 20 0 0,0
15.10.2018 02:00:00 19,0 10,5 15,8 15,6 15,2 11 6 24 13 S 1006,9 20 0 0,0
15.10.2018 01:00:00 20,0 10,7 17,2 15,7 15,2 12 6 30 16 S 1006,3 20 0 0,0
15.10.2018 00:00:00 20,5 10,9 17,1 15,7 15,2 14 8 41 22 S 1006,3 20 0 0,0
14.10.2018 23:00:00 20,8 11,1 17,4 15,8 15,2 17 9 42 23 S 1006,1 20 0 0,0
14.10.2018 22:00:00 21,6 11,3 18,1 15,9 15,2 12 7 37 20 SSE 1005,9 20 0 0,0
14.10.2018 21:00:00 22,0 11,7 18,9 15,9 15,2 17 9 40 21 SSE 1005,4 20 0 0,0
14.10.2018 20:00:00 22,2 12,2 18,6 15,8 15,2 13 7 31 17 SSE 1005,3 20 0 0,0
14.10.2018 19:00:00 23,4 12,1 19,8 15,8 15,2 10 5 31 17 SSE 1004,8 20 39 0,0
14.10.2018 18:00:00 24,6 12,5 23,1 15,6 15,2 9 5 26 14 SSE 1004,7 20 21 0,0
14.10.2018 17:00:00 25,1 12,0 24,6 15,5 15,2 12 6 29 16 S 1005,0 20 38 0,0
14.10.2018 16:00:00 24,9 12,1 25,1 15,3 15,2 10 5 31 17 S 1005,2 20 31 0,0
14.10.2018 15:00:00 25,1 11,6 25,1 15,2 15,2 12 7 35 19 S 1005,2 20 26 0,0
14.10.2018 14:00:00 24,4 11,7 23,5 15,0 15,2 14 8 43 23 S 1005,5 20 37 0,0
14.10.2018 13:00:00 23,4 11,8 22,5 15,0 15,2 16 9 38 20 S 1006,0 20 57 0,0
14.10.2018 12:00:00 22,0 11,4 21,1 15,0 15,2 18 10 41 22 S 1006,1 20 60 0,0
14.10.2018 11:00:00 19,9 11,4 16,4 15,0 15,2 14 8 31 17 S 1006,3 20 60 0,0
14.10.2018 10:00:00 16,7 11,6 13,9 15,1 15,2 12 6 29 16 SSE 1006,9 20 40 0,0
14.10.2018 09:00:00 15,3 11,7 12,2 15,2 15,2 6 4 21 11 SE 1007,1 20 17 0,0
14.10.2018 08:00:00 14,8 12,1 12,1 15,3 15,2 8 4 15 8 S 1007,1 20 0 0,0
14.10.2018 07:00:00 15,7 12,4 13,2 15,4 15,2 6 3 13 7 SE 1007,4 20 0 0,0
14.10.2018 06:00:00 15,6 12,9 12,8 15,4 15,2 8 4 14 8 SSE 1008,6 20 0 0,0
14.10.2018 05:00:00 16,2 12,9 13,6 15,5 15,2 6 3 18 10 S 1009,0 20 0 0,0
14.10.2018 04:00:00 16,9 12,8 14,5 15,6 15,2 9 5 21 12 S 1009,1 20 0 0,0
14.10.2018 03:00:00 17,7 13,0 15,2 15,6 15,2 9 5 20 11 S 1009,6 20 0 0,0
14.10.2018 02:00:00 17,9 13,2 15,2 15,7 15,2 10 5 20 11 S 1010,2 20 0 0,0
14.10.2018 01:00:00 18,4 13,5 15,1 15,8 15,2 8 4 17 9 S 1011,1 20 0 0,0
14.10.2018 00:00:00 18,9 13,7 15,1 15,9 15,2 6 3 15 8 SSE 1011,5 20 0 0,0
13.10.2018 23:00:00 19,5 13,9 15,8 16,0 15,2 6 4 15 8 S 1012,0 20 0 0,0
13.10.2018 22:00:00 19,9 13,8 16,1 16,0 15,2 5 3 18 10 S 1012,4 20 0 0,0
13.10.2018 21:00:00 21,1 13,8 17,6 16,0 15,2 8 5 25 14 S 1012,4 20 0 0,0

tt = Température de l'air
td = dewpoint
tt 5cm = Température de l'air 5cm
tt -20cm = Température de l'air -20cm
tt -100cm = Température de l'air -100cm
ff = Vitesse du vent
fx = gusts
dd = Direction du vent
ppp = reduced air pressure
vv = visibility
sd = Ensoleillement
rr = Quantités de précipitations

stations d'obs. à proximité